Location: Poughquag
(41.6090°N, 73.6820°W)
Time: 11:19:14
(UTC-05:00)

Envisat - Visible Passes

Search period start: 21 January 2018 00:00
Search period end: 31 January 2018 00:00
Orbit: 764 x 766 km, 98.2° (Epoch: 21 January)

Date Brightness Start Highest point End Pass type
(mag) Time Alt. Az. Time Alt. Az. Time Alt. Az.
21 Jan 4.6 18:11:10 16° NE 18:11:10 16° NE 18:13:07 10° NNE visible
21 Jan 4.7 19:51:21 25° NNW 19:51:21 25° NNW 19:53:30 10° NNW visible
22 Jan 4.0 19:13:56 32° N 19:13:56 32° N 19:16:45 10° N visible
22 Jan 6.0 20:54:07 10° NW 20:54:07 10° NW 20:54:15 10° NW visible
23 Jan 4.1 18:36:31 25° NE 18:36:31 25° NE 18:39:31 10° N visible
23 Jan 5.1 20:16:42 22° NW 20:16:42 22° NW 20:18:47 10° NNW visible
24 Jan 4.6 17:59:05 14° ENE 17:59:05 14° ENE 18:01:24 10° NNE visible
24 Jan 4.0 19:39:16 38° NNW 19:39:16 38° NNW 19:42:24 10° NNW visible
25 Jan 3.5 19:01:50 40° NNE 19:01:50 40° NNE 19:05:32 10° N visible
25 Jan 5.6 20:42:01 16° WNW 20:42:01 16° WNW 20:43:39 10° NW visible
26 Jan 4.1 18:24:23 23° ENE 18:24:23 23° ENE 18:28:07 10° NNE visible
26 Jan 4.4 20:04:34 34° NW 20:04:34 34° NW 20:07:49 10° NNW visible
27 Jan 4.8 17:46:56 10° ENE 17:48:00 11° ENE 17:49:11 10° NE visible
27 Jan 3.2 19:27:07 59° N 19:27:07 59° N 19:31:17 10° N visible
27 Jan 6.0 21:07:18 10° WNW 21:07:18 10° WNW 21:07:18 10° WNW visible
28 Jan 3.4 18:49:39 37° ENE 18:49:39 37° ENE 18:54:16 10° N visible
28 Jan 5.1 20:29:51 24° WNW 20:29:51 24° WNW 20:32:54 10° NW visible
29 Jan 4.3 18:12:11 17° ENE 18:13:13 18° ENE 18:16:38 10° NNE visible
29 Jan 3.6 19:52:22 53° WNW 19:52:22 53° WNW 19:56:47 10° NNW visible
30 Jan 2.9 19:14:54 65° E 19:15:03 65° ENE 19:20:06 10° N visible
30 Jan 5.7 20:55:05 14° W 20:55:05 14° W 20:57:18 10° WNW visible
